www.pogodaiklimat.ru

Погода и климат >> Архив погоды >> Россия >> Бурятия >> Улан-Удэ


АРХИВ ПОГОДЫ в Улан-Удэ

Время (UTC), дата Ветер
(напр.,м/с)
 
Видим.   Явления Облачность Т
(С)
Тd
(С)
f
(%)
Тe
(С)
Тes
(С)
Комфортность P
(гПа)
Po
(гПа)
Тmin
(С)
Tmax
(С)
R
(мм)
R24
(мм)
S
(см)
12 13.05 С 4
{10}
50 км {метель} 9/0
[Ac trans Ci fib]
+9.6 -6.0 33 +8 +8 холодно 1005.7 945.4 +11.5
15 13.05 Ю 1 50 км 3/0
[Ci fib]
+5.1 -2.5 58 +4 +4 прохладно 1006.9 945.7
18 13.05 ЮВ 1 50 км ясно +3.0 -2.6 67 +2 +2 по сезону 1005.3 943.7
21 13.05 ЮВ 1 50 км 10/8 1000 м
[Sc As op]
+4.1 -3.7 57 +3 +3 по сезону 1004.5 943.2
00 14.05 Ю 1 50 км 10/6 1000 м
[Cb cap As trans Ci]
+6.2 -3.7 49 +6 +7 по сезону 1002.3 941.6 +1.6
03 14.05 С 7-12
{12}
50 км 10/0
[Ac As]
+8.6 -4.5 39 +5 +6 холодно 1000.3 940.1
06 14.05 СЗ 6-12
{15}
50 км {ливн. осадки} 10/8 600 м
[Cb cap Ac und]
+5.0 +0.3 72 0 +1 очень
холодно
1002.2 941.3
09 14.05 С 3
{13}
50 км {ливн. осадки} 10/5 1000 м
[Cb cap Ci sp]
+4.9 +1.0 76 +2 +4 очень
холодно
1004.8 943.7
12 14.05 СЗ 3
{11}
50 км {ливн. осадки} 9/9 600 м
[Cb cap]
+4.5 -0.1 72 +1 +1 очень
холодно
1006.9 945.6 +9.0 0.5
15 14.05 штиль 0 50 км 9/9 1000 м
[Cb cap]
+3.7 -0.4 75 +3 +3 холодно 1007.1 945.6
18 14.05 ЮЗ 1 50 км 8/8 1000 м
[Cb cap]
+2.3 -0.7 81 +1 +1 прохладно 1006.3 944.5
21 14.05 С 4 50 км 10/1 1000 м
[Cb cap Ci sp]
+3.3 -1.2 72 -1 -1 холодно 1004.5 943.0
00 15.05 С 3 50 км 10/1 1000 м
[Cb cap Ci sp]
+5.0 -1.7 62 +2 +5 прохладно 1003.5 942.5 +2.2
03 15.05 С 3 50 км 9/8 1000 м
[Cb cap Ci fib]
+8.5 -2.6 46 +6 +8 прохладно 1001.9 941.7
06 15.05 С 4-10
{11}
50 км 10/8 1000 м
[Cu med, cong Ci fib]
+12.0 -8.1 24 +11 +12 прохладно 1000.0 940.6
09 15.05 С 4
{12}
50 км 8/5 1000 м
[Cu med, cong Ci fib]
+12.5 -10.0 20 +11 +13 прохладно 999.5 940.2
12 15.05 С 4
{10}
50 км 3/0
[Ci fib]
+10.4 -9.6 23 +9 +9 холодно 1001.3 941.4 +13.2
15 15.05 В 1 50 км ясно +5.9 -10.4 30 +6 +6 прохладно 1003.0 942.1
18 15.05 З 1 50 км ясно -0.3 -6.8 61 -2 -2 холодно 1005.3 943.0
21 15.05 З 2 50 км 1/0
[Ci sp]
-3.0 -7.7 70 -7 -7 очень
холодно
1006.7 943.7
00 16.05 З 1 50 км ясно +5.3 -6.9 41 +5 +10 по сезону 1006.5 945.3 -3.1
03 16.05 СЗ 4
{12}
50 км 4/3 1000 м
[Cu hum Ci fib]
+11.1 -9.2 23 +9 +16 по сезону 1004.6 944.7
06 16.05 С 6-11
{13}
50 км 8/5 1000 м
[Cu hum Ci fib]
+13.3 -14.7 13 +12 +14 прохладно 1004.6 945.1
09 16.05 СЗ 4
{13}
50 км осадки на расстоянии 10/8 600 м
[Cb cap Ci fib]
+11.8 -10.5 20 +10 +11 холодно 1005.9 946.1
12 16.05 С 5
{13}
50 км осадки на расстоянии 10/4 600 м
[Cb cap Ci sp]
+10.2 -10.0 23 +8 +8 холодно 1008.3 947.9 +13.4
15 16.05 З 1 50 км 10/0
[Ci fib]
+6.9 -6.7 37 +7 +7 прохладно 1010.6 949.5
18 16.05 Ю 2 50 км 10/0
[Ci fib]
+2.9 -5.8 53 +1 +1 прохладно 1012.2 950.2
21 16.05 З 2 50 км 8/0
[Ci sp]
+1.3 -4.1 67 -2 -2 холодно 1013.5 951.0
00 17.05 З 4 50 км 8/4 1000 м
[Cu hum Cs]
+5.8 -3.4 52 +2 +4 прохладно 1013.9 952.4 +1.2
03 17.05 С 6-10
{12}
50 км 10/8 600 м
[Cb cap Ci sp]
+9.0 -4.9 37 +6 +7 холодно 1013.6 952.8
06 17.05 СЗ 6-13
{16}
50 км 9/8 600 м
[Cb cap Ci sp]
+11.4 -11.7 19 +9 +10 холодно 1013.1 952.7
09 17.05 СЗ 5-10
{13}
50 км 9/6 600 м
[Cb cap Ac trans Ci sp]
+12.2 -12.2 17 +11 +11 прохладно 1012.8 952.6
12 17.05 С 3
{12}
50 км 9/5 1000 м
[Cb cap Ac As Ci sp]
+9.2 -12.6 20 +8 +8 холодно 1014.7 953.8 +12.3
15 17.05 СЗ 2 50 км 10/1 1000 м
[Sc As trans Cs]
+6.3 -6.3 40 +5 +5 холодно 1016.5 954.9
18 17.05 Ю 2 50 км 10/0
[Cs]
+2.0 -6.5 53 -1 -1 холодно 1018.0 955.4
21 17.05 Ю 2 50 км 10/3 1000 м
[Sc As trans]
+1.9 -9.2 44 -1 -1 холодно 1018.1 955.4
00 18.05 СЗ 1 50 км 10/1 1000 м
[Sc As trans]
+6.0 -8.8 34 +6 +8 по сезону 1018.8 957.0 +1.5
03 18.05 СЗ 6-13
{13}
50 км 10/3 1000 м
[Cu hum Ac und Ci sp]
+8.4 -9.6 27 +5 +7 холодно 1018.6 957.3
06 18.05 СЗ 6-11
{13}
50 км 10/6 1000 м
[Cb cap Ac und]
+9.3 -10.1 24 +6 +7 очень
холодно
1018.8 957.7
09 18.05 С 3
{12}
50 км 10/1 1000 м
[Cu hum Ac und]
+8.6 -8.3 29 +7 +8 очень
холодно
1018.8 957.5
12 18.05 СЗ 3
{10}
50 км 10/0
[Ac und]
+7.6 -7.2 34 +6 +6 очень
холодно
1019.3 957.8 +9.7
15 18.05 ЮЗ 2 50 км 10/4 1000 м
[Cb cap Ac und]
+6.3 -6.7 39 +5 +5 холодно 1019.7 957.9
18 18.05 С 4-12
{12}
50 км 10/6 1000 м
[Cb cap Ac und]
+7.4 -6.8 36 +5 +5 по сезону 1019.0 957.4
21 18.05 СЗ 2
{12}
50 км 10/3 1000 м
[Cb cap Ac trans Ci sp]
+7.2 -7.9 33 +6 +6 по сезону 1018.6 957.0
00 19.05 СЗ 2 50 км 9/0
[Ac trans Ci sp]
+8.6 -7.9 30 +8 +11 по сезону 1019.3 958.0 +5.8
03 19.05 С 5-10
{10}
50 км 3/3 1000 м
[Cu hum]
+13.1 -8.9 21 +12 +17 по сезону 1017.8 957.5
06 19.05 С 4
{12}
50 км ясно +14.6 -11.4 15 +14 +24 прохладно 1016.9 957.0
09 19.05 СЗ 4
{11}
50 км ясно +16.1 -11.5 14 +16 +20 по сезону 1015.5 955.9
12 19.05 С 3 50 км ясно +14.5 -12.1 15 +14 +14 по сезону 1015.6 955.7 +16.3
15 19.05 В 1 50 км ясно +8.2 -8.4 30 +8 +8 прохладно 1017.5 956.2
18 19.05 Ю 1 50 км ясно +2.7 -9.4 40 +2 +2 прохладно 1019.0 956.4
21 19.05 ЮЗ 1 50 км ясно -0.8 -7.0 63 -2 -2 очень
холодно
1019.4 956.1
00 20.05 СЗ 1 50 км ясно +5.2 -6.0 44 +5 +10 по сезону 1017.8 955.9 -0.8
03 20.05 ЮЗ 3 50 км ясно +15.6 -9.6 17 +15 +27 опасность
простуды
1013.6 954.1
06 20.05 ЮЗ 2 50 км 1/0
[Ci fib]
+20.6 -11.2 11 +20 +35 опасность
простуды
1010.1 951.8
09 20.05 СЗ 4 50 км 8/0
[Ci fib]
+21.2 -11.7 10 +20 +24 тепло 1008.8 950.6

 

Местоположение метеостанции Улан-Удэ (Бурятия, Россия): широта 51.83 долгота 107.60 высота над уровнем моря 515 м.

В архиве по умолчанию представлена погода в Улан-Удэ за последнюю неделю. Архивные данные за месяц целиком и за предыдущие месяцы, начиная с января 2011 года, Вы можете получить, выбрав интересующий диапазон дат из раскрывающегося списка и нажав кнопку "Ввод!".


*Определитесь, кто Вы:
робот инопланетянин человек

Внимание! Время в таблицах - всемирное. Для получения местного времени необходимо прибавить поправку, которая равна 8 ч.

Смотрите также архив погоды в соседних городах и на ближайших метеорологических станциях:

Погода в Улан-Удэ АМС (Бурятия, Россия) (10 км)
Погода в Иволгинске (Бурятия, Россия) (29 км)
Погода в Новой Курбе (Бурятия, Россия) (67 км)
Погода в Кабанске (Бурятия, Россия) (73 км)
Погода в Сухой (Бурятия, Россия) (87 км)
Погода в Мухоршибири (Бурятия, Россия) (90 км)
Погода в Петровском Заводе (Забайкальский край, Россия) (100 км)
Погода в Новоселенгинске (Бурятия, Россия) (107 км)
Погода в Бабушкине (Бурятия, Россия) (125 км)
Погода в Горячинске (Бурятия, Россия) (134 км)

Пояснения к столбцам:

Ветер - указаны скорость ветра в м/с - средняя за 10 мин, порывы в срок и между сроками (в фигурных скобках) и направление, откуда дует ветер: С - северный, СВ - северо-восточный, В - восточный, ЮВ - юго-восточный, Ю - южный, ЮЗ - юго-западный, З - западный, СЗ - северо-западный.
Видимость - горизонтальная дальность видимости в метрах или километрах. При видимости от 1 до 10 км при отсутствии осадков обычно наблюдается дымка, при ухудшении видимости до 1 км и менее - туман. В сухую погоду видимость может ухудшаться дымом, пылью или мглою.
Явления - указаны атмосферные явления, наблюдавшиеся в срок или в последний час перед сроком; фигурными скобками обозначены явления, наблюдавшиеся между сроками (за 1-3 часа до срока); квадратными скобками обозначены град или гололедные отложения с указанием их диаметра в мм.
Облачность - указаны через наклонную черту общая и нижняя облачность в баллах и высота нижней границы облаков в метрах; квадратными скобками обозначены формы облаков: Ci - перистые, Cs - перисто-слоистые, Cc - перисто-кучевые, Ac - высококучевые, As - высокослоистые, Sc - слоисто-кучевые, Ns - слоисто-дождевые, Cu - кучевые, Cb - кучево-дождевые. Подробнее классификацию облаков см. в Атласе облаков (PDF).
T - Температура воздуха - температура, измеренная на высоте 2 м над землей.
Td - Температура точки росы - температура, при понижении до которой содержащийся в воздухе водяной пар достигнет насыщения.
f - Относительная влажность воздуха - влажноcть воздуха, измеренная на высоте 2 м над землей.
Te - Эффективная температура - температура, которую ощущает одетый по сезону человек в тени. Характеристика душности погоды. При расчете учитывается влияние влажности воздуха и скорости ветра на теплоощущения человека.
Tes - Эффективная температура на солнце - температура, которую ощущает человек, с поправкой на солнечный нагрев. Характеристика знойности погоды. Зависит от высоты солнца над горизонтом, облачности и скорости ветра. Ночью, в пасмурную погоду, а также при ветре 12 м/с и более поправка равна нулю.
P - Атмосферное давление - приведенное к уровню моря атмосферное давление.
Po - Атмосферное давление - измеренное на уровне метеостанции атмосферное давление.
Tmin - Минимальная температура - минимум температуры воздуха на высоте 2 м над землей.
Tmax - Максимальная температура - максимум температуры воздуха на высоте 2 м над землей.
R - Количество осадков - Количество выпавших осадков за период времени, мм. При наведении курсора мыши на число - период времени, за который выпало указанное количество осадков.
R24 - Количество осадков - Количество выпавших осадков за 24 часа, мм.
S - Снежный покров - Высота снежного покрова, см. При наведении курсора мыши на число - состояние снежного покрова и степень покрытия местности в баллах.